EW6005 Weather Reports


Display with metric or nautical units.
time (UTC)temp
F
wind
direction
speed
MPH
gust
MPH
rain 1hr
in
rain 24hr
in
rain mn
in
humidity
%
barometer
mb
20260902155253 85 0 1.0 5.0 0.00 0.15 0.00 88 1000.9
20260902154752 84 0 1.0 4.0 0.00 0.15 0.00 89 1000.8
20260902154252 84 0 1.0 4.0 0.00 0.15 0.00 90 1000.8
20260902154019 83 0 1.0 3.0 0.00 0.15 0.00 91 1000.8
20260902153250 83 0 1.0 3.0 0.00 0.15 0.00 90 1000.9
20260902153012 83 0 0.0 2.0 0.00 0.15 0.00 91 1000.9
20260902152251 83 0 0.0 5.0 0.00 0.15 0.00 91 1000.9
20260902151745 83 0 0.0 5.0 0.00 0.15 0.00 91 1000.9
20260902151245 82 209 0.0 3.0 0.00 0.15 0.00 91 1000.9
20260902150743 82 0 0.0 0.0 0.00 0.15 0.00 92 1001.0
20260902150237 82 0 0.0 0.0 0.00 0.15 0.00 92 1000.9
20260902145738 82 0 0.0 0.0 0.00 0.15 0.00 92 1001.0
20260902145234 82 0 0.0 0.0 0.00 0.15 0.00 93 1000.9
20260902144732 82 0 0.0 0.0 0.00 0.15 0.00 92 1000.9
20260902144230 81 0 0.0 0.0 0.00 0.15 0.00 92 1000.9
20260902143729 81 0 0.0 0.0 0.00 0.15 0.00 93 1000.9
20260902143712 81 0 0.0 0.0 0.00 0.15 0.00 93 1000.9
20260902142725 81 0 0.0 2.0 0.00 0.15 0.00 93 1000.9
20260902142447 81 0 0.0 2.0 0.00 0.15 0.00 93 1000.8
20260902141721 81 0 0.0 3.0 0.00 0.15 0.00 93 1000.9
20260902141219 81 0 0.0 3.0 0.00 0.15 0.00 93 1000.8
20260902140943 81 0 0.0 0.0 0.00 0.15 0.00 93 1000.7
20260902140216 81 0 0.0 1.0 0.00 0.15 0.00 93 1000.8
20260902135936 81 0 0.0 1.0 0.00 0.15 0.00 93 1000.7
20260902135215 81 0 0.0 1.0 0.00 0.15 0.00 93 1000.7
20260902134937 81 0 0.0 0.0 0.00 0.15 0.00 93 1000.7
20260902134211 80 0 0.0 0.0 0.00 0.15 0.00 93 1000.7
20260902133712 80 0 0.0 0.0 0.00 0.15 0.00 93 1000.7
20260902133209 80 0 0.0 1.0 0.00 0.15 0.00 93 1000.7
20260902132707 80 0 0.0 1.0 0.00 0.15 0.00 93 1000.7
20260902132207 80 0 0.0 0.0 0.00 0.15 0.00 93 1000.6
20260902131707 80 0 0.0 1.0 0.00 0.15 0.00 93 1000.5
20260902131207 80 0 0.0 1.0 0.00 0.15 0.00 93 1000.4
20260902130704 80 0 0.0 2.0 0.00 0.15 0.00 93 1000.4
20260902130203 80 0 0.0 2.0 0.00 0.15 0.00 93 1000.3
20260902125923 80 0 0.0 2.0 0.00 0.15 0.00 93 1000.2
20260902125159 80 0 0.0 2.0 0.00 0.15 0.00 93 1000.1
20260902124659 80 0 0.0 2.0 0.00 0.15 0.00 93 1000.0
20260902124418 80 0 0.0 2.0 0.00 0.15 0.00 93 999.9
20260902123700 80 0 0.0 1.0 0.00 0.15 0.00 93 999.9
20260902123158 80 0 0.0 3.0 0.00 0.15 0.00 93 999.7
20260902122920 80 0 1.0 3.0 0.00 0.15 0.00 93 999.5
20260902122157 80 0 0.0 2.0 0.00 0.15 0.00 93 999.4
20260902121918 80 0 0.0 3.0 0.00 0.15 0.00 93 999.3
20260902121156 80 0 1.0 3.0 0.00 0.15 0.00 93 999.3
20260902120656 80 0 1.0 3.0 0.00 0.15 0.00 93 999.1
20260902120155 80 0 1.0 3.0 0.00 0.15 0.00 93 999.0
20260902115655 80 0 0.0 3.0 0.00 0.15 0.00 93 999.0
20260902115413 80 0 0.0 2.0 0.00 0.15 0.00 93 999.0
20260902114655 80 0 0.0 2.0 0.00 0.15 0.00 93 999.0
20260902114155 80 0 0.0 2.0 0.00 0.15 0.00 93 999.0
20260902113655 80 0 0.0 2.0 0.00 0.15 0.00 93 999.0
20260902113155 80 0 1.0 2.0 0.00 0.15 0.00 93 998.9
20260902112655 80 0 1.0 2.0 0.00 0.15 0.00 93 998.8
20260902112416 80 0 0.0 3.0 0.00 0.15 0.00 93 998.8
20260902111656 79 0 1.0 3.0 0.00 0.15 0.00 93 998.8
20260902111155 79 0 0.0 2.0 0.00 0.15 0.00 93 998.9
20260902110656 79 0 0.0 2.0 0.00 0.15 0.00 93 998.8
20260902110155 79 0 0.0 1.0 0.00 0.15 0.00 93 998.9
20260902105919 79 0 0.0 4.0 0.00 0.15 0.00 93 998.9
20260902105155 79 0 0.0 4.0 0.00 0.15 0.00 93 999.0
20260902104655 79 0 0.0 2.0 0.00 0.15 0.00 93 998.8
20260902104155 79 0 0.0 0.0 0.00 0.15 0.00 93 998.9
20260902103656 79 0 0.0 0.0 0.00 0.15 0.00 93 998.9
20260902103155 78 0 0.0 0.0 0.00 0.15 0.00 93 998.9
20260902102655 78 0 0.0 0.0 0.00 0.15 0.00 94 999.0
20260902102155 78 0 0.0 0.0 0.00 0.15 0.00 94 999.0
20260902101655 78 0 0.0 0.0 0.00 0.15 0.00 94 999.0
20260902101155 78 0 0.0 0.0 0.00 0.15 0.00 94 998.9
20260902100655 78 0 0.0 1.0 0.00 0.15 0.00 94 998.9
20260902100155 78 0 0.0 1.0 0.00 0.15 0.00 94 998.9
20260902095655 78 0 0.0 0.0 0.00 0.15 0.00 94 998.9
20260902095152 78 0 0.0 0.0 0.00 0.15 0.00 95 999.0
20260902094652 78 0 0.0 0.0 0.00 0.15 0.00 95 999.0
20260902094151 78 0 0.0 0.0 0.00 0.15 0.00 95 999.1
20260902093911 78 0 0.0 0.0 0.00 0.15 0.00 95 999.2
20260902093414 78 0 0.0 0.0 0.00 0.15 0.00 95 999.1
20260902092653 77 0 0.0 0.0 0.00 0.15 0.00 95 999.1
20260902092152 77 0 0.0 0.0 0.00 0.15 0.00 95 999.0
20260902091651 78 0 0.0 0.0 0.00 0.15 0.00 95 999.0
20260902091151 77 0 0.0 0.0 0.00 0.15 0.00 95 999.0
20260902090651 78 0 0.0 0.0 0.00 0.15 0.00 96 999.0
20260902090151 77 0 0.0 0.0 0.00 0.15 0.00 96 999.1
20260902085651 77 0 0.0 0.0 0.00 0.15 0.00 95 999.0
20260902085151 77 0 0.0 0.0 0.00 0.15 0.00 95 999.0
20260902084651 77 0 0.0 0.0 0.00 0.15 0.00 95 999.0
20260902084412 77 0 0.0 0.0 0.00 0.15 0.00 95 999.0
20260902083650 77 0 0.0 0.0 0.00 0.15 0.00 95 999.0
20260902083151 77 0 0.0 0.0 0.00 0.15 0.00 95 998.9
20260902082651 77 0 0.0 0.0 0.00 0.15 0.00 95 998.9
20260902082414 77 0 0.0 0.0 0.00 0.15 0.00 95 998.9
20260902081915 77 0 0.0 0.0 0.00 0.15 0.00 95 998.9
20260902081148 77 0 0.0 0.0 0.00 0.15 0.00 95 998.9
20260902080648 77 0 0.0 0.0 0.00 0.15 0.00 95 998.9
20260902080146 77 0 0.0 0.0 0.00 0.15 0.00 95 998.9
20260902075647 77 0 0.0 0.0 0.00 0.15 0.00 95 998.9
20260902075634 77 0 0.0 0.0 0.00 0.15 0.00 95 998.9
20260902074647 77 0 0.0 0.0 0.00 0.15 0.00 95 998.8
20260902074146 77 0 0.0 0.0 0.00 0.15 0.00 95 998.8
20260902073908 77 0 0.0 0.0 0.00 0.15 0.00 96 998.9
20260902073143 77 0 0.0 0.0 0.00 0.15 0.00 96 999.0
20260902072642 77 0 0.0 0.0 0.00 0.15 0.00 96 999.0
20260902072144 77 0 0.0 0.0 0.00 0.15 0.00 96 999.1
20260902071642 77 0 0.0 0.0 0.00 0.15 0.00 96 999.2
20260902071142 77 0 0.0 0.0 0.00 0.15 0.00 96 999.2
20260902070909 77 0 0.0 0.0 0.00 0.16 0.00 96 999.2
20260902070142 77 0 0.0 0.0 0.00 0.16 0.00 96 999.2
20260902065901 77 0 0.0 0.0 0.00 0.16 0.00 96 999.1
20260902065143 77 0 0.0 0.0 0.00 0.16 0.00 96 999.1
20260902064643 77 0 0.0 0.0 0.00 0.16 0.00 96 999.1
20260902064406 77 0 0.0 0.0 0.00 0.16 0.00 96 999.2
20260902063643 77 0 0.0 0.0 0.00 0.16 0.00 96 999.3
20260902063141 77 0 0.0 0.0 0.00 0.16 0.00 96 999.4
20260902062642 77 0 0.0 0.0 0.00 0.16 0.00 96 999.4
20260902062138 77 0 0.0 0.0 0.00 0.16 0.00 96 999.3
20260902061906 77 0 0.0 0.0 0.00 0.16 0.00 96 999.3
20260902061138 77 0 0.0 0.0 0.00 0.16 0.00 96 999.2
20260902060638 77 0 0.0 0.0 0.00 0.16 0.00 96 999.1
20260902060137 77 0 0.0 0.0 0.00 0.16 0.00 96 999.0
20260902055636 77 0 0.0 0.0 0.00 0.16 0.00 96 998.9
20260902055137 77 0 0.0 0.0 0.00 0.16 0.00 96 999.0
20260902054634 77 0 0.0 0.0 0.00 0.16 0.00 96 999.0
20260902054135 77 0 0.0 0.0 0.00 0.16 0.00 96 999.0
20260902053856 77 0 0.0 0.0 0.00 0.16 0.00 96 999.0
20260902053621 77 0 0.0 0.0 0.00 0.16 0.00 96 999.0
20260902052629 77 0 0.0 0.0 0.00 0.16 0.00 96 998.9
20260902052126 77 0 0.0 1.0 0.00 0.16 0.00 96 998.9
20260902051627 78 0 0.0 1.0 0.00 0.16 0.00 96 998.9
20260902051123 78 0 0.0 1.0 0.00 0.16 0.00 96 999.2
20260902050624 78 0 0.0 0.0 0.00 0.16 0.00 96 999.2
20260902050212 77 0 0.0 0.0 0.00 0.16 0.00 96 999.1
20260902045119 78 0 0.0 0.0 0.00 0.16 0.16 96 999.1
20260902044619 78 0 0.0 1.0 0.00 0.16 0.16 96 999.0
20260902044119 78 0 0.0 1.0 0.00 0.16 0.16 96 999.1
20260902043852 78 0 0.0 0.0 0.00 0.16 0.16 96 999.1
20260902043119 78 0 0.0 1.0 0.00 0.16 0.16 96 999.1
20260902042619 78 0 0.0 1.0 0.00 0.16 0.16 96 999.2
20260902042120 78 0 0.0 1.0 0.00 0.16 0.16 96 999.1
20260902041618 78 0 0.0 1.0 0.00 0.16 0.16 96 999.2
20260902041119 78 0 0.0 1.0 0.00 0.16 0.16 96 999.3
20260902040619 78 0 0.0 0.0 0.00 0.16 0.16 96 999.3
20260902040118 78 0 0.0 0.0 0.00 0.16 0.16 96 999.3
20260902035615 78 0 0.0 0.0 0.00 0.16 0.16 96 999.4
20260902035115 78 0 0.0 0.0 0.00 0.16 0.16 96 999.3
20260902034615 78 0 0.0 0.0 0.00 0.16 0.16 96 999.3
20260902034115 78 0 0.0 0.0 0.00 0.16 0.16 96 999.4
20260902033615 78 0 0.0 0.0 0.00 0.16 0.16 95 999.3
20260902033115 78 0 0.0 0.0 0.00 0.16 0.16 95 999.3
20260902032614 78 0 0.0 0.0 0.00 0.16 0.16 95 999.4
20260902032334 78 0 0.0 0.0 0.00 0.16 0.16 95 999.4
20260902031617 78 0 0.0 0.0 0.00 0.16 0.16 95 999.4
20260902031331 78 0 0.0 0.0 0.00 0.16 0.16 95 999.4
20260902030613 78 0 0.0 0.0 0.00 0.16 0.16 95 999.3
20260902030114 78 0 0.0 0.0 0.00 0.16 0.16 95 999.2
20260902025607 78 0 0.0 0.0 0.00 0.16 0.16 95 999.2
20260902025107 78 0 0.0 0.0 0.00 0.16 0.16 95 999.2
20260902024609 78 0 0.0 0.0 0.00 0.16 0.16 95 999.0
20260902024107 78 0 0.0 0.0 0.00 0.16 0.16 95 999.0
20260902023608 79 0 0.0 0.0 0.00 0.16 0.16 95 998.9
20260902023107 79 0 0.0 0.0 0.00 0.16 0.16 95 998.9
20260902022607 79 0 0.0 0.0 0.00 0.16 0.16 95 998.9
20260902022106 79 0 0.0 0.0 0.00 0.16 0.16 95 998.8
20260902021607 79 0 0.0 0.0 0.00 0.16 0.16 95 998.5
20260902021107 79 0 0.0 0.0 0.00 0.16 0.16 94 998.5
20260902020607 79 0 0.0 0.0 0.00 0.16 0.16 94 998.5
20260902020108 79 0 0.0 0.0 0.00 0.16 0.16 94 998.6
20260902015606 79 0 0.0 0.0 0.00 0.16 0.16 94 998.5
20260902015107 79 0 0.0 0.0 0.00 0.16 0.16 94 998.5
20260902014606 79 0 0.0 0.0 0.00 0.16 0.16 94 998.3
20260902014107 79 0 0.0 0.0 0.00 0.16 0.16 94 998.3
20260902013607 79 0 0.0 0.0 0.00 0.16 0.16 94 998.2
20260902013106 79 0 0.0 0.0 0.00 0.16 0.16 94 998.2
20260902013044 79 0 0.0 0.0 0.00 0.16 0.16 94 998.2
20260902012059 79 0 0.0 0.0 0.00 0.16 0.16 94 998.1
20260902011559 79 0 0.0 0.0 0.00 0.16 0.16 94 998.1
20260902011059 79 0 0.0 0.0 0.00 0.16 0.16 94 998.1
20260902010559 79 0 0.0 0.0 0.00 0.16 0.16 94 998.1
20260902010100 79 0 0.0 0.0 0.00 0.16 0.16 93 998.2
20260902005600 79 0 0.0 0.0 0.00 0.16 0.16 93 998.3
20260902005100 79 0 0.0 0.0 0.00 0.16 0.16 93 998.2
20260902004602 79 0 0.0 0.0 0.00 0.16 0.16 93 998.4
20260902004055 79 0 0.0 0.0 0.00 0.16 0.16 93 998.4
20260902003556 80 0 0.0 0.0 0.00 0.16 0.16 93 998.6
20260902003055 80 0 0.0 0.0 0.00 0.16 0.16 93 998.6
20260902002554 80 0 0.0 0.0 0.00 0.16 0.16 93 998.5
20260902002056 79 0 0.0 0.0 0.00 0.16 0.16 93 998.4
20260902001555 79 0 0.0 0.0 0.00 0.16 0.16 92 998.3
20260902001054 80 0 0.0 0.0 0.01 0.16 0.16 92 998.3
20260902000554 79 0 0.0 0.0 0.02 0.16 0.16 92 998.2
20260902000055 79 0 0.0 0.0 0.03 0.16 0.16 92 998.2
20260901235644 79 0 0.0 0.0 0.04 0.16 0.16 92 998.3
20260901234819 79 0 0.0 0.0 0.06 0.16 0.16 91 998.4
20260901234051 79 0 0.0 0.0 0.06 0.16 0.16 91 998.5
20260901233813 79 0 0.0 0.0 0.07 0.19 0.16 91 998.5
20260901233050 79 0 0.0 0.0 0.08 0.32 0.16 91 998.5
20260901232551 79 0 0.0 0.0 0.10 0.33 0.16 90 998.5
20260901232051 79 0 0.0 0.0 0.12 0.33 0.16 90 998.5
20260901231553 79 0 0.0 0.0 0.15 0.33 0.16 89 998.6
20260901231533 79 0 0.0 1.0 0.14 0.32 0.15 89 998.7
20260901230546 79 0 0.0 1.0 0.13 0.31 0.14 89 998.8
20260901230046 79 0 0.0 0.0 0.12 0.30 0.13 88 998.9
20260901225545 79 0 0.0 0.0 0.11 0.29 0.12 88 999.0
20260901225306 80 0 0.0 0.0 0.10 0.28 0.11 87 999.0
20260901225028 80 0 0.0 1.0 0.09 0.27 0.10 86 999.2
20260901224043 80 0 0.0 1.0 0.09 0.27 0.10 86 999.2
20260901223811 80 0 0.0 1.0 0.08 0.26 0.09 84 999.3
20260901223306 81 0 1.0 3.0 0.07 0.25 0.09 84 999.4
20260901222542 82 0 2.0 4.0 0.05 0.23 0.06 83 999.6
20260901222533 83 0 2.0 10.0 0.03 0.21 0.04 80 999.7
20260901221541 85 0 2.0 10.0 0.00 0.18 0.01 77 999.5
20260901221040 87 0 3.0 8.0 0.00 0.18 0.01 74 999.4
20260901220541 88 0 3.0 12.0 0.00 0.18 0.01 73 999.7
20260901220040 89 0 2.0 12.0 0.00 0.18 0.01 69 999.5
20260901215538 91 350 1.0 4.0 0.00 0.18 0.01 68 999.3
20260901215037 91 101 0.0 2.0 0.00 0.18 0.01 69 998.8
20260901214536 91 42 0.0 1.0 0.00 0.18 0.01 69 998.8
20260901214257 91 42 0.0 2.0 0.00 0.18 0.01 69 998.7
20260901213535 92 0 0.0 2.0 0.00 0.18 0.01 68 998.7
20260901213246 92 342 0.0 1.0 0.00 0.18 0.01 67 998.7
20260901212746 92 26 0.0 0.0 0.00 0.18 0.01 68 998.6
20260901212024 92 0 0.0 1.0 0.00 0.18 0.01 69 998.6
20260901211520 92 0 0.0 1.0 0.00 0.18 0.01 68 998.6
20260901211020 92 11 0.0 2.0 0.00 0.18 0.01 67 998.6
20260901210519 92 58 1.0 2.0 0.00 0.18 0.01 67 998.6
20260901210018 92 14 0.0 2.0 0.00 0.18 0.01 67 998.7
20260901205518 92 0 0.0 2.0 0.00 0.18 0.01 67 998.7
20260901205504 92 271 0.0 2.0 0.00 0.18 0.01 70 998.7
20260901204518 91 348 0.0 2.0 0.00 0.18 0.01 70 998.7
20260901204500 91 19 1.0 2.0 0.00 0.18 0.01 71 998.7
20260901203514 91 348 1.0 3.0 0.00 0.18 0.01 71 998.9
20260901203016 91 0 1.0 3.0 0.00 0.18 0.01 71 999.0
20260901202512 91 0 1.0 3.0 0.00 0.18 0.01 71 999.1
20260901202012 91 346 1.0 3.0 0.00 0.18 0.01 73 999.2
20260901201729 91 0 1.0 3.0 0.00 0.18 0.01 74 999.3
20260901201007 91 50 1.0 3.0 0.00 0.18 0.01 74 999.5
20260901200506 90 17 1.0 2.0 0.00 0.18 0.01 74 999.7
20260901200013 90 0 0.0 2.0 0.00 0.18 0.01 75 999.8
20260901195502 90 340 0.0 0.0 0.00 0.18 0.01 76 1000.0
20260901195002 90 200 0.0 0.0 0.00 0.18 0.01 76 1000.1
20260901194454 90 200 0.0 0.0 0.00 0.18 0.01 76 1000.2
20260901193953 90 11 0.0 0.0 0.00 0.18 0.01 77 1000.2
20260901193454 89 16 0.0 0.0 0.00 0.18 0.01 78 1000.3
20260901192954 89 11 0.0 0.0 0.00 0.18 0.01 78 1000.2
20260901192717 89 17 0.0 0.0 0.00 0.18 0.01 78 1000.1
20260901191950 89 22 0.0 0.0 0.00 0.18 0.01 77 1000.0
20260901191450 89 0 0.0 0.0 0.00 0.18 0.01 78 1000.0
20260901190951 89 0 0.0 0.0 0.00 0.18 0.01 78 999.9
20260901190451 89 0 0.0 0.0 0.00 0.18 0.01 80 1000.0
20260901185950 88 69 0.0 0.0 0.00 0.18 0.01 80 1000.1
20260901185451 88 0 0.0 0.0 0.00 0.18 0.01 79 1000.2
20260901184949 88 0 0.0 0.0 0.00 0.18 0.01 80 1000.2
20260901184450 88 27 0.0 0.0 0.00 0.18 0.01 81 1000.1
20260901183950 87 292 0.0 0.0 0.00 0.18 0.01 81 1000.2
20260901183450 87 284 0.0 0.0 0.00 0.18 0.01 82 1000.3
20260901182950 87 41 0.0 0.0 0.00 0.18 0.01 83 1000.5
20260901182712 87 0 0.0 0.0 0.00 0.18 0.01 83 1000.6
20260901181952 87 0 0.0 1.0 0.00 0.18 0.01 84 1000.6
20260901181707 86 0 0.0 1.0 0.00 0.18 0.01 83 1000.7
20260901180946 86 0 0.0 0.0 0.00 0.18 0.01 85 1000.8
20260901180447 86 0 0.0 0.0 0.00 0.18 0.01 85 1000.9
20260901180205 86 0 0.0 2.0 0.00 0.18 0.01 85 1000.9
20260901175446 86 17 0.0 2.0 0.00 0.18 0.01 85 1001.0
20260901175215 85 348 0.0 2.0 0.00 0.18 0.01 86 1001.0
20260901174446 85 289 0.0 2.0 0.00 0.18 0.01 86 1001.2
20260901173946 85 0 0.0 2.0 0.00 0.18 0.01 87 1001.2
20260901173446 85 40 0.0 2.0 0.00 0.18 0.01 87 1001.4
20260901172941 85 36 0.0 2.0 0.00 0.18 0.01 88 1001.5
20260901172442 85 0 0.0 0.0 0.00 0.18 0.01 89 1001.6
20260901171942 85 0 0.0 0.0 0.00 0.18 0.01 89 1001.7
20260901171443 85 0 0.0 1.0 0.00 0.18 0.01 90 1001.8
20260901171202 84 283 0.0 2.0 0.00 0.18 0.01 89 1001.9
20260901170442 84 0 0.0 2.0 0.00 0.18 0.01 90 1002.0
20260901165942 84 31 0.0 1.0 0.00 0.18 0.01 90 1002.0
20260901165442 84 31 0.0 1.0 0.00 0.18 0.01 91 1002.1
20260901164942 84 32 0.0 1.0 0.00 0.18 0.01 91 1002.1
20260901164438 84 325 0.0 0.0 0.00 0.18 0.01 91 1002.1
20260901164205 84 315 0.0 0.0 0.00 0.18 0.01 92 1002.0
20260901163438 84 314 0.0 0.0 0.00 0.18 0.01 91 1002.0
20260901162938 84 314 0.0 0.0 0.00 0.18 0.01 93 1002.0
20260901162437 84 0 0.0 2.0 0.00 0.18 0.01 93 1002.0
20260901161937 83 311 1.0 2.0 0.00 0.18 0.01 93 1002.0
20260901161438 83 275 0.0 2.0 0.00 0.18 0.01 93 1001.9
20260901160939 83 70 0.0 0.0 0.00 0.18 0.01 94 1001.9
20260901160657 83 0 0.0 0.0 0.00 0.18 0.01 94 1001.9
20260901155934 83 0 0.0 0.0 0.00 0.18 0.01 95 1001.9
20260901155434 83 0 0.0 0.0 0.00 0.18 0.01 95 1001.9